Preview of NWS' New Version of Forecast
This preview is not operational and should not be used for support decisions.

Regional Weather Roundup (RWR)

Issued by National Weather Service (NWS)

                            
000
ASUS43 KTOP 191908
RWRKS 

WEATHER ROUNDUP FOR KANSAS
NATIONAL WEATHER SERVICE GOODLAND KS
200 PM CDT SUN MAY 19 2019

NOTE:  "FAIR" INDICATES FEW OR NO CLOUDS BELOW 12,000 FEET WITH NO
SIGNIFICANT WEATHER AND/OR OBSTRUCTIONS TO VISIBILITY.

KSZ001>006-013>018-027>032-041>047-192000-
NORTHWEST KANSAS
  
CITY           SKY/WX    TMP DP  RH WIND       PRES   REMARKS
GOODLAND       SUNNY     60  38  43 N9G20     29.98R                  
HAYS           SUNNY     60  45  57 NW12      29.99R                  
HILL CITY      SUNNY     62  40  44 N9        29.99R                  
RUSSELL        SUNNY     61  44  53 NW16G25   29.95F                  
$$

KSZ061>065-074>080-084>089-192000-
SOUTHWEST KANSAS
  
CITY           SKY/WX    TMP DP  RH WIND       PRES   REMARKS
DODGE CITY     SUNNY     62  44  51 NW9G17    30.00S                  
ELKHART        PTSUNNY   67  42  39 S7        30.00F                  
GARDEN CITY    CLOUDY    61  43  51 VRB7      30.00F                  
GREAT BEND     SUNNY     60  47  61 NW14      29.99R                  
LIBERAL        SUNNY     64  40  41 VRB5      30.02S                  
PRATT          SUNNY     65  45  48 NW9       29.98R                  
$$

KSZ066>073-081>083-090>101-192000-
SOUTHEAST KANSAS
  
CITY           SKY/WX    TMP DP  RH WIND       PRES   REMARKS
CHANUTE        SUNNY     70  51  51 W13       29.92S                  
COFFEYVILLE    SUNNY     71  52  50 NW10      29.92S                  
HUTCHINSON     SUNNY     65  48  54 NW10G22   29.95F                  
MEDICINE LODGE   N/A     67  47  48 NW9       29.98R                  
NEWTON         MOSUNNY   63  49  60 N17G23    29.95F                  
PARSONS        SUNNY     71  54  54 NW8       29.94R                  
WICHITA INTL   MOSUNNY   67  48  50 NW10      29.94F                  
WICHITA JABRA  SUNNY     66  47  50 NW13      29.94F                  
WICHITA MCCONL SUNNY     66  47  50 NW16G22   29.94S                  
WINFIELD       SUNNY     69  51  52 NW9       29.97R                  
$$

KSZ007>012-019>026-033>040-048>060-102>105-192000-
NORTHEAST KANSAS
  
CITY           SKY/WX    TMP DP  RH WIND       PRES   REMARKS
CONCORDIA      PTSUNNY   63  44  50 NW15G23   29.93F                  
EMPORIA        MOSUNNY   63  50  62 W15G25    29.93S                  
LAWRENCE       MOSUNNY   67  49  52 W17       29.89R                  
MANHATTAN      PTSUNNY   63  46  54 VRB7G23   29.94R                  
MARYSVILLE     PTSUNNY   61  46  59 NW14G21   29.92R                  
OLATHE IND     CLOUDY    65  49  56 W15G23    29.89R                  
OLATHE EXE     MOSUNNY   65  49  56 W15G29    29.88R                  
SALINA         MOSUNNY   63  46  54 NW16G22   29.95F                  
TOPEKA BILLARD PTSUNNY   65  48  54 W13G22    29.90R                  
TOPEKA FORBES  PTSUNNY   65  49  56 NW17G26   29.91R                  
$$